Вернуться в каталог

THOR ABLESTAR DEB

АктивенLEO
NORAD 465·DEBRIS·🇺🇸 United States

Запущен Jun 29, 1961 с Cape Canaveral Space Force Station

Loading…

Ближайшие Пролёты (ближайшие 24 часа)

TLE

СвежийSource: Space-Track

Эпоха: Sep 13, 2026, 17:21 UTC

1 00465U 61015FB  26256.72323337  .00000838  00000-0  28422-3 0  9999
2 00465  66.3197  16.1170 0040338 250.8060 108.8673 14.41290984358869

Отслеживайте THOR ABLESTAR DEB в реальном времени с AllMySat

Download on the App Store